Gilze-Rijen, Netherlands

10:20 AM CET on February 22, 2017 (GMT +0100)
Gilze-Rijen Air Base

Weather History for EHGR - September, 2013

Change the Weather History Date:

Sunday, September 8, 2013

  Actual Average Record
Temperature  
Mean Temperature 60 °F -  
Max Temperature 68 °F 64 °F 83 °F (2016)
Min Temperature 53 °F 48 °F 39 °F (1996)
Degree Days  
Heating Degree Days 4    
Growing Degree Days 10 (Base 50)    
Moisture  
Dew Point 53 °F    
Average Humidity 83    
Maximum Humidity 100    
Minimum Humidity 52    
Precipitation  
Precipitation 0.00 in - - ()
Sea Level Pressure  
Sea Level Pressure 30.07 in    
Wind  
Wind Speed 3 mph ()    
Max Wind Speed 10 mph    
Max Gust Speed -    
Visibility 5.7 miles    
Events Rain    
Averages and records for this station are not official NWS values.
T = Trace of Precipitation, MM = Missing Value Source: Averaged Metar Reports

Daily Weather History Graph

Daily Weather History Graph

Search for Another Location

Airport or City:

Trip Planner

Search our weather history database for the weather conditions in past years. The results will help you decide how hot, cold, wet, or windy it might be!

Date:

Astronomy

Sep. 08, 2013 Rise Set
Actual Time 7:04 AM CEST 8:10 PM CEST
Civil Twilight 6:29 AM CEST 8:44 PM CEST
Nautical Twilight 5:48 AM CEST 9:26 PM CEST
Astronomical Twilight 5:03 AM CEST 10:10 PM CEST
Moon 10:32 AM CEST (9/8) 9:05 PM CEST (9/8)
Length of Visible Light 14h 15m
Length of Day
13h 06m
Waxing Crescent, 9% of the Moon is Illuminated
Sep 8
Waxing Crescent
Sep 12
First Quarter
Sep 19
Full
Sep 27
Last Quarter
Oct 5
New

Hourly Weather History & Observations

Time (CEST) Temp. Dew Point Humidity Pressure Visibility Wind Dir Wind Speed Gust Speed Precip Events Conditions
12:25 AM 57.2 °F 55.4 °F 94% 30.06 in 6.2 mi Calm Calm - N/A   Overcast
12:36 AM 57.2 °F 55.4 °F 94% 30.06 in 3.7 mi Calm Calm - N/A   Overcast
12:40 AM 57.2 °F 55.4 °F 94% 30.06 in 6.2 mi Calm Calm - N/A   Overcast
12:55 AM 57.2 °F 55.4 °F 94% 30.06 in 6.2 mi East 1.2 mph - N/A   Overcast
1:25 AM 57.2 °F 55.4 °F 94% 30.06 in 6.2 mi ENE 1.2 mph - N/A   Overcast
1:55 AM 57.2 °F 55.4 °F 94% 30.06 in 6.2 mi ESE 1.2 mph - N/A   Mostly Cloudy
2:25 AM 57.2 °F 55.4 °F 94% 30.06 in 6.2 mi Calm Calm - N/A   Mostly Cloudy
2:55 AM 57.2 °F 55.4 °F 94% 30.06 in 6.2 mi WNW 1.2 mph - N/A   Overcast
3:25 AM 55.4 °F 55.4 °F 100% 30.06 in 6.2 mi WNW 3.5 mph - N/A   Light Drizzle
3:55 AM 57.2 °F 55.4 °F 94% 30.06 in 6.2 mi WNW 2.3 mph - N/A   Drizzle
4:15 AM 57.2 °F 55.4 °F 94% 30.06 in 5.0 mi WNW 3.5 mph - N/A Rain Light Rain
4:25 AM 57.2 °F 55.4 °F 94% 30.06 in 5.0 mi WNW 2.3 mph - N/A Rain Light Rain Showers
4:27 AM 57.2 °F 55.4 °F 94% 30.06 in 5.0 mi WNW 2.3 mph - N/A Rain Light Rain Showers
4:39 AM 57.2 °F 55.4 °F 94% 30.06 in 4.3 mi WNW 3.5 mph - N/A Rain Light Rain
4:55 AM 57.2 °F 55.4 °F 94% 30.06 in - NNW 1.2 mph - N/A Rain Light Rain Showers
4:58 AM 57.2 °F 55.4 °F 94% 30.06 in - North 2.3 mph - N/A Rain Light Rain Showers
5:01 AM 57.2 °F 55.4 °F 94% 30.06 in 3.1 mi NNE 2.3 mph - N/A Rain Light Rain Showers
5:17 AM 57.2 °F 55.4 °F 94% 30.04 in 5.0 mi NE 3.5 mph - N/A Rain Light Rain
5:25 AM 57.2 °F 55.4 °F 94% 30.04 in 5.6 mi NNE 3.5 mph - N/A Rain Light Rain
5:42 AM 57.2 °F 55.4 °F 94% 30.04 in 6.2 mi NE 4.6 mph - N/A Rain Light Rain
5:55 AM 57.2 °F 53.6 °F 88% 30.04 in 6.2 mi NE 4.6 mph - N/A Rain Rain Showers
6:09 AM 57.2 °F 53.6 °F 88% 30.04 in 6.2 mi ENE 5.8 mph - N/A Rain Light Rain Showers
6:25 AM 55.4 °F 53.6 °F 94% 30.04 in 6.2 mi East 5.8 mph - N/A Rain Light Rain Showers
6:29 AM 55.4 °F 53.6 °F 94% 30.04 in 4.3 mi ENE 4.6 mph - N/A Rain Light Rain Showers
6:32 AM 55.4 °F 53.6 °F 94% 30.04 in 5.0 mi ENE 4.6 mph - N/A Rain Light Rain Showers
6:40 AM 55.4 °F 53.6 °F 94% 30.04 in 5.6 mi East 4.6 mph - N/A Rain Light Rain Showers
6:55 AM 55.4 °F 53.6 °F 94% 30.04 in 5.6 mi East 3.5 mph - N/A Rain Light Rain Showers
7:02 AM 55.4 °F 53.6 °F 94% 30.04 in 6.2 mi East 3.5 mph - N/A Rain Light Rain Showers
7:19 AM 55.4 °F 53.6 °F 94% 30.04 in 3.7 mi Calm Calm - N/A Rain Light Rain
7:25 AM 55.4 °F 53.6 °F 94% 30.04 in 3.1 mi West 1.2 mph - N/A Rain Light Rain
7:38 AM 55.4 °F 53.6 °F 94% 30.04 in 3.7 mi West 1.2 mph - N/A Rain Light Rain
7:39 AM 55.4 °F 53.6 °F 94% 30.04 in - West 1.2 mph - N/A Rain Light Rain
7:46 AM 55.4 °F 53.6 °F 94% 30.04 in 3.1 mi West 2.3 mph - N/A Rain Light Rain
7:51 AM 55.4 °F 53.6 °F 94% 30.04 in 5.0 mi WSW 2.3 mph - N/A Rain Light Rain
7:55 AM 55.4 °F 53.6 °F 94% 30.06 in 4.3 mi WSW 2.3 mph - N/A Rain Light Rain
8:02 AM 55.4 °F 53.6 °F 94% 30.06 in 5.0 mi SW 3.5 mph - N/A Rain Light Rain
8:15 AM 55.4 °F 53.6 °F 94% 30.06 in 5.0 mi SSW 2.3 mph - N/A Rain Light Rain
8:19 AM 55.4 °F 53.6 °F 94% 30.06 in 4.3 mi SW 2.3 mph - N/A Rain Light Rain
8:25 AM 55.4 °F 53.6 °F 94% 30.06 in 3.7 mi South 1.2 mph - N/A Rain Light Rain
8:37 AM 55.4 °F 53.6 °F 94% 30.06 in 5.0 mi NE 2.3 mph - N/A Rain Light Rain
8:41 AM 55.4 °F 53.6 °F 94% 30.06 in 4.3 mi NE 2.3 mph - N/A Rain Light Rain
8:45 AM 55.4 °F 53.6 °F 94% 30.06 in 5.0 mi NE 2.3 mph - N/A Rain Light Rain
8:46 AM 55.4 °F 53.6 °F 94% 30.06 in 4.3 mi NE 2.3 mph - N/A Rain Light Rain
8:55 AM 55.4 °F 53.6 °F 94% 30.06 in 5.0 mi NE 3.5 mph - N/A Rain Light Rain
9:09 AM 55.4 °F 53.6 °F 94% 30.06 in 6.2 mi ENE 6.9 mph - N/A   Light Drizzle
9:25 AM 55.4 °F 51.8 °F 88% 30.06 in 6.2 mi NE 3.5 mph - N/A   Overcast
9:55 AM 57.2 °F 51.8 °F 82% 30.06 in 6.2 mi NE 1.2 mph - N/A   Overcast
9:59 AM 57.2 °F 51.8 °F 82% 30.09 in 6.2 mi ENE 1.2 mph - N/A   Mostly Cloudy
10:06 AM 57.2 °F 53.6 °F 88% 30.09 in 6.2 mi East 1.2 mph - N/A   Overcast
10:25 AM 57.2 °F 53.6 °F 88% 30.09 in 6.2 mi SSE 3.5 mph - N/A   Overcast
10:55 AM 57.2 °F 53.6 °F 88% 30.09 in 6.2 mi SSE 4.6 mph - N/A   Overcast
11:11 AM 59.0 °F 55.4 °F 88% 30.09 in 6.2 mi South 5.8 mph - N/A   Scattered Clouds
11:25 AM 59.0 °F 53.6 °F 82% 30.09 in 6.2 mi South 4.6 mph - N/A   Mostly Cloudy
11:55 AM 60.8 °F 53.6 °F 77% 30.09 in 6.2 mi South 3.5 mph - N/A   Mostly Cloudy
12:00 PM 60.8 °F 53.6 °F 77% 30.09 in 6.2 mi South 4.6 mph - N/A   Mostly Cloudy
12:25 PM 60.8 °F 51.8 °F 72% 30.09 in 6.2 mi South 4.6 mph - N/A   Partly Cloudy
12:26 PM 60.8 °F 51.8 °F 72% 30.09 in 6.2 mi South 5.8 mph - N/A   Scattered Clouds
12:41 PM 62.6 °F 51.8 °F 68% 30.09 in 6.2 mi SSW 4.6 mph - N/A   Partly Cloudy
12:48 PM 62.6 °F 51.8 °F 68% 30.09 in 6.2 mi SSW 4.6 mph - N/A   Scattered Clouds
12:55 PM 62.6 °F 51.8 °F 68% 30.09 in 6.2 mi SSW 5.8 mph - N/A   Scattered Clouds
12:56 PM 62.6 °F 51.8 °F 68% 30.09 in 6.2 mi SSW 4.6 mph - N/A   Scattered Clouds
1:04 PM 62.6 °F 53.6 °F 72% 30.09 in 6.2 mi SW 3.5 mph - N/A   Scattered Clouds
1:11 PM 62.6 °F 51.8 °F 68% 30.09 in 6.2 mi South 4.6 mph - N/A   Scattered Clouds
1:25 PM 64.4 °F 51.8 °F 64% 30.09 in 6.2 mi South 3.5 mph - N/A   Partly Cloudy
1:55 PM 66.2 °F 51.8 °F 60% 30.09 in 6.2 mi South 5.8 mph - N/A   Overcast
2:25 PM 64.4 °F 51.8 °F 64% 30.09 in 6.2 mi South 6.9 mph - N/A   Mostly Cloudy
2:55 PM 64.4 °F 50.0 °F 59% 30.09 in 6.2 mi South 4.6 mph - N/A   Mostly Cloudy
3:25 PM 66.2 °F 50.0 °F 56% 30.09 in 6.2 mi SSW 6.9 mph - N/A   Mostly Cloudy
3:55 PM 64.4 °F 50.0 °F 59% 30.09 in 6.2 mi SSW 5.8 mph - N/A   Overcast
4:25 PM 66.2 °F 48.2 °F 52% 30.09 in 6.2 mi West 3.5 mph - N/A   Mostly Cloudy
4:55 PM 68.0 °F 50.0 °F 52% 30.09 in 6.2 mi ESE 4.6 mph - N/A   Partly Cloudy
5:25 PM 66.2 °F 48.2 °F 52% 30.09 in 6.2 mi SE 6.9 mph - N/A   Mostly Cloudy
5:55 PM 64.4 °F 50.0 °F 59% 30.06 in 6.2 mi ESE 5.8 mph - N/A   Partly Cloudy
6:25 PM 64.4 °F 51.8 °F 64% 30.06 in 6.2 mi East 6.9 mph - N/A   Overcast
6:55 PM 64.4 °F 51.8 °F 64% 30.06 in 6.2 mi East 6.9 mph - N/A   Overcast
7:25 PM 64.4 °F 51.8 °F 64% 30.06 in 6.2 mi ESE 6.9 mph - N/A   Mostly Cloudy
7:55 PM 62.6 °F 51.8 °F 68% 30.06 in 6.2 mi ESE 5.8 mph - N/A   Scattered Clouds
8:25 PM 60.8 °F 51.8 °F 72% 30.06 in 6.2 mi SE 5.8 mph - N/A   Overcast
8:55 PM 59.0 °F 50.0 °F 72% 30.06 in 6.2 mi SE 6.9 mph - N/A   Unknown
9:25 PM 59.0 °F 50.0 °F 72% 30.06 in 6.2 mi SE 5.8 mph - N/A   Scattered Clouds
9:55 PM 57.2 °F 50.0 °F 77% 30.06 in 6.2 mi SE 6.9 mph - N/A   Mostly Cloudy
10:25 PM 57.2 °F 50.0 °F 77% 30.06 in 6.2 mi SSE 4.6 mph - N/A   Mostly Cloudy
10:37 PM 57.2 °F 50.0 °F 77% 30.09 in 6.2 mi WSW 5.8 mph - N/A   Overcast
10:55 PM 57.2 °F 50.0 °F 77% 30.09 in 6.2 mi West 10.4 mph - N/A   Overcast
11:25 PM 55.4 °F 51.8 °F 88% 30.12 in 6.2 mi West 10.4 mph - N/A   Drizzle
11:30 PM 55.4 °F 51.8 °F 88% 30.12 in 6.2 mi West 9.2 mph - N/A Rain Heavy Drizzle
11:43 PM 53.6 °F 51.8 °F 94% 30.09 in 6.2 mi NW 6.9 mph - N/A Rain Light Rain
11:55 PM 53.6 °F 51.8 °F 94% 30.09 in 6.2 mi NW 5.8 mph - N/A   Drizzle